Weather History for Wichita, KS

Change the Weather History Date:

Sunday, July 27, 2014

  Actual Average Record
Temperature  
Mean Temperature 82 °F 81 °F  
Max Temperature 91 °F 93 °F 111 °F (2011)
Min Temperature 72 °F 70 °F 58 °F (1994)
Degree Days  
Heating Degree Days 0 0  
Month to date heating degree days 1 0  
Since 1 June heating degree days 1 6  
Since 1 July heating degree days 1 0  
Cooling Degree Days 17 16  
Month to date cooling degree days 348 427  
Year to date cooling degree days 957 892  
Since 1 June cooling degree days 690 756  
Growing Degree Days 34 (Base 50)    
Moisture  
Dew Point 64 °F    
Average Humidity 54    
Maximum Humidity 79    
Minimum Humidity 29    
Precipitation  
Precipitation 0.05 in 0.09 in 1.75 in (1893)
Month to date precipitation 2.91 2.93  
Year to date precipitation 19.44 19.99  
Snow  
Snow 0.00 in 0.00 in 0.00 in (2007)
Month to date snowfall 0.0 0.0  
Since 1 June snowfall 0.0 0.0  
Since 1 July snowfall 0.0 0.0  
Snow Depth 0.00 in    
Sea Level Pressure  
Sea Level Pressure 30.01 in    
Wind  
Wind Speed 9 mph (NNE)    
Max Wind Speed 32 mph    
Max Gust Speed 43 mph    
Visibility 9 miles    
Events Rain    
T = Trace of Precipitation, MM = Missing Value Source: NWS Daily Summary

Daily Weather History Graph

Daily Weather History Graph

Search for Another Location

Airport:

Trip Planner

Search our weather history database for the weather conditions in past years. The results will help you decide how hot, cold, wet, or windy it might be!

Date:

Astronomy

Jul. 27, 2014 Rise Set
Actual Time 6:29 AM CDT 8:42 PM CDT
Civil Twilight 5:59 AM CDT 9:11 PM CDT
Nautical Twilight 5:23 AM CDT 9:47 PM CDT
Astronomical Twilight 4:44 AM CDT 10:27 PM CDT
Moon 7:15 AM CDT (7/27) 8:55 PM CDT (7/27)
Length of Visible Light 15h 12m
Length of Day
14h 13m
New Moon, 1% of the Moon is Illuminated
Jul 27
New Moon
Aug 3
First Quarter
Aug 10
Full
Aug 17
Last Quarter
Aug 25
New

Hourly Weather History & Observations

Time (CDT) Temp. Heat Index Dew Point Humidity Pressure Visibility Wind Dir Wind Speed Gust Speed Precip Events Conditions
12:53 AM 79.0 °F - 69.1 °F 72% 29.86 in 10.0 mi South 5.8 mph - N/A   Mostly Cloudy
1:53 AM 78.1 °F - 69.1 °F 74% 29.86 in 10.0 mi South 6.9 mph - N/A   Mostly Cloudy
2:53 AM 79.0 °F - 69.1 °F 72% 29.88 in 10.0 mi Calm Calm - N/A   Mostly Cloudy
3:53 AM 78.1 °F - 68.0 °F 71% 29.88 in 10.0 mi SSW 8.1 mph - N/A   Mostly Cloudy
4:53 AM 80.1 °F 82.1 °F 66.0 °F 62% 29.90 in 10.0 mi NNW 8.1 mph - N/A   Mostly Cloudy
5:53 AM 82.0 °F 86.7 °F 72.0 °F 71% 29.93 in 10.0 mi North 13.8 mph - N/A   Overcast
6:53 AM 79.0 °F - 61.0 °F 54% 29.97 in 10.0 mi North 27.6 mph 40.3 mph N/A   Overcast
7:53 AM 78.1 °F - 69.1 °F 74% 29.96 in 10.0 mi ENE 18.4 mph 24.2 mph 0.00 in Rain Light Rain
8:53 AM 79.0 °F - 68.0 °F 69% 29.98 in 8.0 mi ENE 12.7 mph - 0.01 in Rain Light Rain
9:53 AM 79.0 °F - 68.0 °F 69% 30.02 in 10.0 mi North 10.4 mph - 0.00 in   Overcast
10:53 AM 79.0 °F - 72.0 °F 79% 30.03 in 7.0 mi ENE 9.2 mph - 0.00 in Rain Light Rain
12:53 PM 82.0 °F 86.7 °F 72.0 °F 71% 30.11 in 8.0 mi NNW 8.1 mph - 0.00 in Rain Light Rain
1:53 PM 79.0 °F - 72.0 °F 79% 30.11 in 6.0 mi North 4.6 mph - 0.00 in Rain Light Rain
2:53 PM 80.1 °F 84.2 °F 73.0 °F 79% 30.06 in 7.0 mi ENE 6.9 mph - 0.02 in   Mostly Cloudy
3:53 PM 86.0 °F 91.5 °F 71.1 °F 61% 30.05 in 10.0 mi NE 6.9 mph - N/A   Scattered Clouds
4:53 PM 91.0 °F 88.9 °F 55.0 °F 29% 30.04 in 10.0 mi North 12.7 mph - N/A   Scattered Clouds
5:53 PM 90.0 °F 87.9 °F 55.0 °F 30% 30.05 in 10.0 mi North 11.5 mph - N/A   Scattered Clouds
6:53 PM 89.1 °F 87.1 °F 55.0 °F 31% 30.05 in 10.0 mi North 9.2 mph - N/A   Partly Cloudy
7:53 PM 87.1 °F - 51.1 °F 29% 30.05 in 10.0 mi North 6.9 mph - N/A   Partly Cloudy
8:53 PM 82.0 °F 81.2 °F 53.1 °F 37% 30.06 in 10.0 mi North 5.8 mph - N/A   Partly Cloudy
9:53 PM 80.1 °F - 52.0 °F 38% 30.09 in 10.0 mi North 8.1 mph - N/A   Scattered Clouds
10:53 PM 78.1 °F - 54.0 °F 43% 30.12 in 10.0 mi North 9.2 mph - N/A   Partly Cloudy
11:53 PM 75.0 °F - 55.0 °F 50% 30.13 in 10.0 mi NNE 8.1 mph - N/A   Partly Cloudy